HLE67 EGFC-EGFC

Flight info

Callsign HLE67
Flight time 0h 8m
Altitude 2500
Route HEMS TASKINGS
Aircraft EC45/M-SDE2E3FGHIJ1RWXY/LB1

Departure

Time 2026-05-04 13:00
Airport Cardiff Heliport (EGFC)

Arrival

Time 2026-05-04 13:08
Airport Cardiff Heliport (EGFC)
Time Latitude Longitude Altitude Speed Heading
2026-05-04 12:57 51.40024 -3.35476 214 ft 0 kts 117°
2026-05-04 12:59 51.39977 -3.35437 252 ft 20 kts 120°
2026-05-04 13:00 51.39841 -3.35010 390 ft 62 kts 99°
2026-05-04 13:00 51.39674 -3.34155 544 ft 97 kts 102°
2026-05-04 13:00 51.39431 -3.32977 733 ft 121 kts 102°
2026-05-04 13:00 51.39189 -3.31746 908 ft 105 kts 101°
2026-05-04 13:01 51.38997 -3.30724 881 ft 98 kts 103°
2026-05-04 13:01 51.38783 -3.29613 900 ft 107 kts 101°
2026-05-04 13:01 51.38565 -3.28481 896 ft 108 kts 103°
2026-05-04 13:01 51.38335 -3.27306 898 ft 113 kts 102°
2026-05-04 13:02 51.38101 -3.26108 903 ft 113 kts 102°
2026-05-04 13:02 51.37868 -3.24918 896 ft 112 kts 103°
2026-05-04 13:02 51.37631 -3.23723 903 ft 111 kts 104°
2026-05-04 13:02 51.37401 -3.22561 896 ft 111 kts 105°
2026-05-04 13:03 51.37159 -3.21365 900 ft 113 kts 103°
2026-05-04 13:03 51.36925 -3.20196 900 ft 111 kts 104°
2026-05-04 13:03 51.36689 -3.19021 900 ft 110 kts 102°
2026-05-04 13:03 51.36453 -3.17847 899 ft 113 kts 102°
2026-05-04 13:04 51.36215 -3.16655 899 ft 113 kts 104°
2026-05-04 13:04 51.35974 -3.15458 903 ft 111 kts 103°
2026-05-04 13:04 51.35740 -3.14299 894 ft 110 kts 103°
2026-05-04 13:04 51.35504 -3.13131 897 ft 110 kts 102°
2026-05-04 13:05 51.35263 -3.11947 896 ft 113 kts 104°
2026-05-04 13:05 51.35021 -3.10750 896 ft 113 kts 103°
2026-05-04 13:05 51.34778 -3.09555 897 ft 112 kts 102°
2026-05-04 13:05 51.34541 -3.08379 892 ft 111 kts 102°
2026-05-04 13:06 51.34299 -3.07191 896 ft 112 kts 102°
2026-05-04 13:06 51.34059 -3.06004 896 ft 112 kts 102°
2026-05-04 13:06 51.33820 -3.04823 888 ft 113 kts 105°
2026-05-04 13:06 51.33576 -3.03627 894 ft 112 kts 103°
2026-05-04 13:07 51.33333 -3.02431 893 ft 113 kts 103°
2026-05-04 13:07 51.33125 -3.01227 904 ft 108 kts 97°
2026-05-04 13:07 51.32990 -3.00181 904 ft 87 kts 97°
2026-05-04 13:07 51.32879 -2.99321 895 ft 71 kts 98°
2026-05-04 13:08 51.32789 -2.98635 988 ft 57 kts 100°
2026-05-04 13:08 51.32659 -2.98088 1000 ft 49 kts 108°
2026-05-04 13:08 51.32519 -2.97627 991 ft 47 kts 113°
2026-05-04 13:08 51.32278 -2.97145 845 ft 65 kts 143°
2026-05-04 13:09 51.31914 -2.97145 745 ft 52 kts 245°
2026-05-04 13:09 51.31997 -2.97542 546 ft 39 kts 11°
2026-05-04 13:09 51.32234 -2.97599 410 ft 30 kts 18°
2026-05-04 13:09 51.32342 -2.97451 327 ft 21 kts 78°
2026-05-04 13:10 51.32342 -2.97222 199 ft 14 kts 146°
2026-05-04 13:10 51.32315 -2.97204 115 ft 5 kts 157°
2026-05-04 13:10 51.32296 -2.97194 38 ft 4 kts 155°
2026-05-04 13:10 51.32294 -2.97183 27 ft 0 kts 154°
2026-05-04 13:14 51.32287 -2.97189 28 ft 3 kts 109°
2026-05-04 13:14 51.32280 -2.97177 104 ft 15 kts 357°
2026-05-04 13:14 51.32521 -2.97117 312 ft 54 kts 354°
2026-05-04 13:15 51.33009 -2.97147 368 ft 87 kts 354°
2026-05-04 13:15 51.33669 -2.97189 494 ft 99 kts 357°
2026-05-04 13:15 51.34377 -2.97233 662 ft 104 kts 357°
2026-05-04 13:15 51.35120 -2.97281 849 ft 109 kts 359°
2026-05-04 13:16 51.35889 -2.97332 1045 ft 112 kts 359°
2026-05-04 13:16 51.36675 -2.97396 1043 ft 119 kts 359°
2026-05-04 13:16 51.37503 -2.97467 1047 ft 117 kts 359°
2026-05-04 13:16 51.38308 -2.97540 1026 ft 116 kts
2026-05-04 13:17 51.39121 -2.97608 1029 ft 117 kts
2026-05-04 13:17 51.39930 -2.97676 1021 ft 116 kts
2026-05-04 13:17 51.40737 -2.97736 1021 ft 116 kts
2026-05-04 13:17 51.41553 -2.97799 1027 ft 117 kts
2026-05-04 13:18 51.42366 -2.97864 1023 ft 117 kts
2026-05-04 13:18 51.43182 -2.97924 1022 ft 118 kts
2026-05-04 13:18 51.43994 -2.97987 1025 ft 115 kts
2026-05-04 13:18 51.44794 -2.98047 1017 ft 116 kts
2026-05-04 13:19 51.45623 -2.98102 1024 ft 121 kts
2026-05-04 13:19 51.46469 -2.98162 1022 ft 122 kts
2026-05-04 13:19 51.47301 -2.98222 1021 ft 121 kts
2026-05-04 13:19 51.48127 -2.98281 1020 ft 119 kts
2026-05-04 13:20 51.48947 -2.98339 1023 ft 119 kts
2026-05-04 13:20 51.49760 -2.98398 1034 ft 117 kts
2026-05-04 13:20 51.50581 -2.98456 1040 ft 119 kts
2026-05-04 13:20 51.51412 -2.98516 1043 ft 119 kts
2026-05-04 13:21 51.52231 -2.98576 1046 ft 117 kts
2026-05-04 13:21 51.53059 -2.98637 1041 ft 121 kts
2026-05-04 13:21 51.53885 -2.98698 1036 ft 116 kts
2026-05-04 13:21 51.54688 -2.98755 1042 ft 115 kts
2026-05-04 13:22 51.55491 -2.98814 1044 ft 117 kts
2026-05-04 13:22 51.56311 -2.98871 1051 ft 117 kts
2026-05-04 13:22 51.57137 -2.98930 1055 ft 118 kts
2026-05-04 13:22 51.57951 -2.98994 1047 ft 119 kts
2026-05-04 13:23 51.58775 -2.99059 1053 ft 117 kts
2026-05-04 13:23 51.59592 -2.99120 1050 ft 120 kts
2026-05-04 13:23 51.60418 -2.99187 1056 ft 117 kts
2026-05-04 13:23 51.61244 -2.99250 1049 ft 122 kts
2026-05-04 13:24 51.62086 -2.99154 1055 ft 120 kts 11°
2026-05-04 13:24 51.62893 -2.98985 1050 ft 110 kts 13°
2026-05-04 13:24 51.63585 -2.98860 1061 ft 92 kts 14°
2026-05-04 13:25 51.64592 -2.98521 941 ft 50 kts 350°
2026-05-04 13:25 51.64778 -2.98760 738 ft 26 kts 324°
2026-05-04 13:25 51.64882 -2.98976 608 ft 19 kts 297°
2026-05-04 13:25 51.64926 -2.99145 562 ft 17 kts 297°
2026-05-04 13:26 51.64964 -2.99301 489 ft 12 kts 298°
2026-05-04 13:26 51.64996 -2.99422 419 ft 9 kts 298°
2026-05-04 13:26 51.65034 -2.99513 333 ft 7 kts 297°
2026-05-04 13:26 51.65045 -2.99549 333 ft 5 kts 297°
2026-05-04 13:27 51.65030 -2.99569 376 ft 6 kts 353°
2026-05-04 13:27 51.65044 -2.99553 324 ft 2 kts 349°
2026-05-04 13:27 51.65045 -2.99558 321 ft 0 kts 343°